Location: Unspecified
(54.1780°N, 0.0000°E)
Time: 18:01:11
(UTC+00:00)

S-56A Canister/Altair - Pass Details

Date: 16 June 2019
Orbit: 633 x 2499 km, 38.9° (Epoch: 17 August)

Event Time Altitude Azimuth Distance (km) Brightness Sun altitude
Rises 20:58:32 0° 246° (WSW) 3,290 11.0 -3.1°
Reaches altitude 10° 21:02:51 10° 213° (SSW) 2,128 9.7 -3.5°
Maximum altitude 21:04:24 11° 194° (SSW) 1,975 9.3 -3.7°
Drops below altitude 10° 21:05:54 10° 174° (S) 2,034 9.2 -3.8°
Enters shadow 21:08:10 - 150° (SSE) 2,467 9.5 -4.0°
Sets 21:09:43 0° 140° (SE) 2,920 - -4.2°
